Overview Statistics Trail Chart Weather Telemetry Raw packets
 

This is the latest recevied weather packets stored in our database for station/object KB1JDX. If no packets are shown the sender has not sent any weather packets the latest 10 day(s).

<< 1 2 3 4 5 6 >>
Time Temp. Humidity Pressure Rain* Wind** Luminosity Snow
1788589927 16.11° C 100% 1008.9 hPa 0 mm 0 m/s - -
1788589863 16.11° C 100% 1008.9 hPa 0 mm 0 m/s - -
1788588726 16.11° C 100% 1009.2 hPa 0 mm 0 m/s - -
1788587526 16.11° C 100% 1009.3 hPa 0 mm 0 m/s - -
1788586263 16.67° C 100% 1009.4 hPa 0 mm 0 m/s - -
1788585127 16.67° C 100% 1009.5 hPa 0 mm 0 m/s - -
1788583926 17.22° C 100% 1009.4 hPa 0 mm 0 m/s - -
1788582727 17.22° C 100% 1009.5 hPa 0 mm 0 m/s - -
1788582663 17.22° C 100% 1009.5 hPa 0 mm 0 m/s - -
1788581526 17.22° C 100% 1009.5 hPa 0 mm 0 m/s - -
1788580326 17.78° C 100% 1009.5 hPa 0 mm 0 m/s - -
1788579063 17.78° C 100% 1009.4 hPa 0 mm 0 m/s - -
1788577926 17.78° C 100% 1009.2 hPa 0 mm 0 m/s - -
1788576726 18.33° C 100% 1009.2 hPa 0 mm 0 m/s - -
1788575463 18.33° C 100% 1009.2 hPa 0 mm 0 m/s - -
1788574326 18.89° C 100% 1009.1 hPa 0 mm 0 m/s - -
1788573126 18.89° C 100% 1009.4 hPa 0 mm 0 m/s - -
1788571926 18.89° C 100% 1009.5 hPa 0 mm 0 m/s - -
1788571863 19.44° C 100% 1009.5 hPa 0 mm 0 m/s - -
1788570726 19.44° C 100% 1009.5 hPa 0 mm 0 m/s - -
1788569526 20° C 100% 1009.5 hPa 0 mm 0 m/s - -
1788568326 20° C 100% 1009.4 hPa 0 mm 0 m/s - -
1788568263 20° C 100% 1009.4 hPa 0 mm 0 m/s - -
1788567126 20.56° C 100% 1009.2 hPa 0 mm 0 m/s - -
1788565926 21.67° C 4% 1009.1 hPa 0 mm 0 m/s - -

* Rain latest hour (hover to see other rain measurements)
** Current wind speed in m/s (hover to see current wind gust speed)